FW3884 Weather Reports


Display with metric or nautical units.
time (UTC)temp
F
wind
direction
speed
MPH
gust
MPH
rain 1hr
in
rain 24hr
in
rain mn
in
humidity
%
barometer
mb
20260906101506 66 0.0 0.0 0.00 0.02 0.00 96 1010.1
20260906100006 66 0.0 0.0 0.00 0.02 0.00 96 1009.6
20260906094504 65 0.0 0.0 0.00 0.02 0.00 97 1009.4
20260906093011 65 0.0 0.0 0.00 0.02 0.00 97 1009.5
20260906091504 65 0.0 0.0 0.00 0.02 0.00 96 1009.6
20260906090003 65 0.0 0.0 0.00 0.02 0.00 96 1009.7
20260906084502 65 0.0 0.0 0.00 0.02 0.00 96 1009.5
20260906083002 65 0.0 0.0 0.00 0.02 0.00 96 1009.3
20260906081600 65 0.0 0.0 0.00 0.02 0.00 95 1009.3
20260906074600 66 0.0 0.0 0.00 0.02 0.00 94 1009.0
20260906073057 66 0.0 0.0 0.00 0.02 0.00 94 1009.1
20260906071555 67 0.0 0.0 0.00 0.02 0.00 93 1009.0
20260906070053 67 0.0 0.0 0.00 0.02 0.00 93 1009.2
20260906064551 67 0.0 0.0 0.00 0.02 0.00 92 1009.5
20260906063049 67 0.0 0.0 0.00 0.02 0.00 92 1009.8
20260906061548 67 0.0 0.0 0.00 0.02 0.00 92 1009.8
20260906060057 67 0.0 0.0 0.00 0.02 0.00 92 1009.8
20260906054548 67 0.0 0.0 0.00 0.02 0.00 92 1010.0
20260906053046 67 0.0 0.0 0.00 0.02 0.00 92 1009.9
20260906051545 68 0.0 0.0 0.00 0.02 0.00 92 1010.0
20260906050046 68 0.0 0.0 0.00 0.02 0.00 91 1010.1
20260906044542 68 0.0 0.0 0.00 0.02 0.00 91 1010.1
20260906043043 68 0.0 0.0 0.00 0.02 0.00 91 1010.1
20260906041546 68 0.0 0.0 0.00 0.02 0.00 91 1010.3
20260906040046 68 0.0 0.0 0.00 0.02 0.02 91 1010.1
20260906034538 68 0.0 0.0 0.00 0.02 0.02 91 1010.4
20260906033037 69 0.0 0.0 0.00 0.02 0.02 90 1010.3
20260906031536 69 0.0 0.0 0.00 0.02 0.02 89 1010.4
20260906030036 70 0.0 0.0 0.00 0.02 0.02 87 1010.5
20260906024535 70 0.0 0.0 0.00 0.02 0.02 86 1010.5
20260906023043 70 0.0 0.0 0.00 0.02 0.02 85 1010.4
20260906021535 71 0.0 0.0 0.00 0.02 0.02 84 1010.3
20260906020035 71 0.0 0.0 0.00 0.02 0.02 84 1010.0
20260906014538 71 0.0 0.0 0.00 0.02 0.02 84 1010.0
20260906013034 71 0.0 0.0 0.00 0.02 0.02 84 1009.8
20260906011533 71 0.0 0.0 0.00 0.02 0.02 84 1009.9
20260906010032 71 0.0 0.0 0.00 0.02 0.02 85 1009.6
20260906004532 72 0.0 0.0 0.00 0.02 0.02 84 1009.1
20260906003032 72 0.0 0.0 0.00 0.02 0.02 84 1008.9
20260906001531 73 0.0 0.0 0.00 0.02 0.02 84 1008.7
20260906000031 73 0.0 0.0 0.00 0.02 0.02 85 1008.6
20260905234531 74 0.0 0.0 0.00 0.02 0.02 84 1008.6
20260905233030 75 0.0 0.0 0.00 0.02 0.02 81 1008.6
20260905231529 77 0.0 0.0 0.00 0.02 0.02 77 1008.7
20260905230029 78 0.0 0.0 0.00 0.02 0.02 74 1008.6
20260905224528 79 0.0 0.0 0.00 0.02 0.02 71 1008.7
20260905223030 81 0.0 0.0 0.00 0.02 0.02 66 1008.7
20260905221535 83 0.0 0.0 0.00 0.02 0.02 66 1008.6
20260905220026 84 0.0 0.0 0.00 0.02 0.02 61 1008.6
20260905214526 86 0.0 0.0 0.00 0.02 0.02 62 1008.7
20260905213033 87 0.0 0.0 0.00 0.02 0.02 65 1008.7
20260905211529 89 0.0 0.0 0.00 0.02 0.02 60 1008.5
20260905210028 88 0.0 0.0 0.00 0.02 0.02 62 1008.3
20260905204520 87 0.0 0.0 0.00 0.02 0.02 63 1008.5
20260905203018 85 0.0 0.0 0.00 0.02 0.02 62 1008.6
20260905201525 84 0.0 0.0 0.00 0.02 0.02 63 1008.5
20260905200017 83 0.0 0.0 0.00 0.02 0.02 65 1008.3
20260905194516 81 0.0 0.0 0.00 0.02 0.02 65 1008.1
20260905193017 81 0.0 0.0 0.00 0.02 0.02 64 1007.6
20260905191514 79 0.0 0.0 0.00 0.02 0.02 69 1007.5
20260905190014 76 0.0 0.0 0.00 0.02 0.02 77 1007.3
20260905184512 74 0.0 0.0 0.01 0.02 0.02 82 1007.7
20260905183012 72 0.0 0.0 0.02 0.02 0.02 93 1007.9
20260905181610 70 0.0 0.0 0.02 0.02 0.02 93 1008.2
20260905180006 70 0.0 0.0 0.01 0.01 0.01 92 1008.8
20260905174511 71 0.0 0.0 0.01 0.01 0.01 88 1009.6
20260905173011 73 0.0 0.0 0.00 0.00 0.00 85 1010.3
20260905171502 77 0.0 0.0 0.00 0.00 0.00 76 1010.5
20260905170003 80 0.0 0.0 0.00 0.00 0.00 72 1010.8
20260905164502 84 0.0 0.0 0.00 0.00 0.00 71 1010.8
20260905163105 86 0.0 0.0 0.00 0.00 0.00 68 1010.8
20260905161559 87 0.0 0.0 0.00 0.00 0.00 67 1010.3
20260905160059 87 0.0 0.0 0.00 0.00 0.00 69 1010.6
20260905154556 86 0.0 0.0 0.00 0.00 0.00 67 1010.7
20260905153055 86 0.0 0.0 0.00 0.00 0.00 73 1010.7
20260905151551 85 0.0 0.0 0.00 0.00 0.00 70 1010.7
20260905150049 84 0.0 0.0 0.00 0.00 0.00 73 1010.7
20260905144547 83 0.0 0.0 0.00 0.00 0.00 72 1010.5
20260905143043 82 0.0 0.0 0.00 0.00 0.00 76 1010.8
20260905141543 79 0.0 0.0 0.00 0.00 0.00 81 1010.7
20260905140034 77 0.0 0.0 0.00 0.00 0.00 84 1010.6
20260905134534 76 0.0 0.0 0.00 0.00 0.00 84 1010.5
20260905133027 75 0.0 0.0 0.00 0.00 0.00 84 1010.6
20260905131541 75 0.0 0.0 0.00 0.00 0.00 84 1010.7
20260905130020 74 0.0 0.0 0.00 0.00 0.00 85 1010.6
20260905124534 74 0.0 0.0 0.00 0.00 0.00 87 1010.6
20260905123013 73 0.0 0.0 0.00 0.00 0.00 87 1010.7
20260905121521 72 0.0 0.0 0.00 0.00 0.00 88 1010.7
20260905120011 71 0.0 0.0 0.00 0.00 0.00 89 1010.5
20260905114530 70 0.0 0.0 0.00 0.00 0.00 90 1010.4
20260905113010 70 0.0 0.0 0.00 0.00 0.00 90 1010.5
20260905111515 69 0.0 0.0 0.00 0.00 0.00 90 1010.5
20260905110008 69 0.0 0.0 0.00 0.00 0.00 92 1010.5
20260905104509 68 0.0 0.0 0.00 0.00 0.00 92 1010.3
20260905103022 68 0.0 0.0 0.00 0.00 0.00 92 1010.5